Location: Wildlife_Club
(35.6000°N, 81.4330°W)
Time: 05:18:14
(UTC-04:00)

Iridium 56 - Visible Passes

Search period start: 30 July 2016 00:00
Search period end: 09 August 2016 00:00
Orbit: 776 x 779 km, 86.4° (Epoch: 29 July)

Date Brightness Start Highest point End Pass type
(mag) Time Alt. Az. Time Alt. Az. Time Alt. Az.
30 Jul 7.5 00:03:15 10° NNE 00:05:21 19° NE 00:05:21 19° NE visible
30 Jul 7.6 01:43:39 10° NNW 01:45:49 21° NW 01:45:49 21° NW visible
30 Jul 7.9 23:31:19 10° NE 23:31:52 11° NE 23:31:52 11° NE visible
31 Jul 7.2 01:09:41 10° N 01:12:20 30° NNW 01:12:20 30° NNW visible
01 Aug 7.1 00:36:07 10° N 00:38:51 31° N 00:38:51 31° N visible
02 Aug 7.3 00:02:54 10° NNE 00:05:22 24° NE 00:05:22 24° NE visible
02 Aug 7.9 01:44:18 10° NW 01:45:50 16° NW 01:45:50 16° NW visible
02 Aug 7.6 23:30:16 10° NNE 23:31:54 16° NE 23:31:54 16° NE visible
03 Aug 7.5 01:10:00 10° NNW 01:12:22 25° NW 01:12:22 25° NW visible
04 Aug 7.1 00:36:11 10° N 00:38:54 31° N 00:38:54 31° N visible
05 Aug 7.1 00:02:45 10° N 00:05:26 29° NNE 00:05:26 29° NNE visible
05 Aug 8.2 01:45:22 10° NW 01:45:54 11° NW 01:45:54 11° NW visible
05 Aug 7.4 23:29:44 10° NNE 23:31:59 21° NE 23:31:59 21° NE visible
06 Aug 7.7 01:10:28 10° NNW 01:12:27 19° NW 01:12:27 19° NW visible
06 Aug 7.7 22:57:29 10° NE 22:58:32 13° NE 22:58:32 13° NE visible
07 Aug 7.3 00:36:24 10° NNW 00:39:00 28° NNW 00:39:00 28° NNW visible
08 Aug 7.0 00:02:45 10° N 00:05:33 33° N 00:05:33 33° N visible
08 Aug 7.1 23:29:28 10° NNE 23:32:07 27° NNE 23:32:07 27° NNE visible
